Location: Janeiro
(34.9957°N, 76.7652°W)
Time: 04:17:54
(UTC+00:00)

Cosmos 1743 - Pass Details

Date: 14 December 2019
Orbit: 512 x 526 km, 82.6° (Epoch: 19 January)

Event Time Altitude Azimuth Distance (km) Brightness Sun altitude
Rises 22:50:16 0° 358° (N) 2,657 6.1 -10.9°
Reaches altitude 10° 22:52:27 10° 3° (N) 1,766 5.2 -11.3°
Maximum altitude 22:56:16 56° 82° (E) 626 2.7 -12.0°
Drops below altitude 10° 23:00:04 10° 161° (SSE) 1,759 5.4 -12.7°
Sets 23:02:13 0° 166° (SSE) 2,644 6.4 -13.2°
